NOAA 16 DEB

Satellite information

Favourite Embed

Satellite Type and Status

DEBRISIN ORBIT

Key statistics

Satellite NOAA 16 DEB at a glance.

Uptime

8995

Days in orbit

Revolutions

≈ 14.5

Per day

Orbit

SSO

Sun Synchronous Orbit

Inclination

99.0

Latest

Satellite identification and parameters

Extended collection of information and parameters for NOAA 16 DEB.

Object identification

Identified? True

Debris? True

Object name: NOAA 16 DEB

International designator: 2000-055FJ

Object number (NORAD): 41258

Object ID (CCSDS): 41258

Country: UNITED STATES OF AMERICA (US)

Current information (Y/N): Y

RCS size: SMALL

Orbital parameters

Period: 99.085 minutes

Inclination: 99.0049 deg

SMA: 7093.042 km

Apoapsis: 744.538 km

Periapsis: 685.276 km

RAAN: 355.6871 deg

Eccentricy: 0.0041775

Argument of periapsis: 200.3966 deg

Mean anomaly: 159.5561 deg

Mean motion: 14.53295634 rev/day

Mean motion (dot): 0.00007641 rev/day2

B* drag term: 0.0018299 1/REarth

Two-line elements (TLE)

Creation date: May 7, 2025, 10:46 p.m.

Reference frame: TEME

Reference center: EARTH

Epoch: May 7, 2025, 9:22 p.m. UTC

TLE line 0: 0 NOAA 16 DEB

TLE line 1: 1 41258U 00055FJ 25127.89064270 .00007641 00000-0 18299-2 0 9992

TLE line 2: 2 41258 99.0049 355.6871 0041775 200.3966 159.5561 14.53295634487517

Live tracking on map

Real-time ground track for satellite NOAA 16 DEB.

In-orbit conjunctions

A list of the most updated potential collisions computed for object NOAA 16 DEB.

Target Orbit TCA Probability of collision Miss distance Type
CZ-6A DEB LEO 2024-12-21 12:50:35 0.00024421 136.0 (m) DEBRIS
CZ-6A DEB LEO 2024-11-17 22:30:33 0.0002237713 519.0 (m) DEBRIS
COSMOS 1898 LEO 2024-08-15 14:22:57 0.0001961783 212.0 (m) PAYLOAD

Associated space launch

The NOAA K, L and M POES satellites begin the fifth generation of improved environmental monitoring in support of NOAA missions. The instrument payload has significant improvements and additions/deletions. The instrument changes have effected the spacecraft subsystems and data formats.

NOAA 16 DEB was lifted into orbit during the mission ‘Titan II SLV | NOAA 16’, on board a Titan II SLV space rocket.

The launch took place on Sept. 21, 2000, 10:22 a.m. from Space Launch Complex 4W.

For more information about the launch, click the button.

Launch to space Titan II SLV | NOAA 16
Titan II SLV | NOAA 16

Agency: N/A

Status: Launch Successful

Launch date: Sept. 21, 2000, 10:22 a.m. UTC

Rocket: Titan II SLV

Launch pad: Space Launch Complex 4W

Location: Vandenberg SFB, CA, USA

...

Latest news about this satellite

There are no fresh news available about this satellite. Check back as we update our databases every day.


Newsletter sign-up

Weekly statistics, charts and insights to help you stay on top of the space industry.